This demonstration page uses our WeatherBlox Daily Observations layout. Learn more.

39.92423, -83.80882

Hourly Observations for September 30, 2017

Temp ( °F °C ) Dew Point ( °F °C ) Humidity (%) Winds ( mph kmh ) Pressure ( in mb ) Visibility ( mi km ) Precip ( " mm )
12:56 am 00:56 Clear 51 10.6 43 6.1 74 74 N 7 11 30.24 1024 10 16.09344 0 0
1:56 am 01:56 Clear 50 10 42 5.6 74 74 N 6 9 30.24 1024 10 16.09344 0 0
2:56 am 02:56 Clear 49 9.4 43 6.1 80 80 NNE 3 6 30.27 1025 10 16.09344 0 0
3:56 am 03:56 Clear 48 8.9 43 6.1 83 83 Calm 30.27 1025 10 16.09344 0 0
5:56 am 05:56 Clear 47 8.3 44 6.7 90 90 NE 6 9 30.33 1027 10 16.09344 0 0
6:56 am 06:56 Clear 46 7.8 43 6.1 89 89 NE 7 11 30.33 1027 10 16.09344 0 0
7:56 am 07:56 Sunny 47 8.3 45 7.2 93 93 N 7 11 30.36 1028 10 16.09344 0 0
8:56 am 08:56 Sunny 52 11.1 47 8.3 83 83 NE 6 9 30.39 1029 10 16.09344 0 0
9:56 am 09:56 Sunny 56 13.3 49 9.4 77 77 NE 9 15 30.39 1029 10 16.09344 0 0
10:46 am 10:46 Mostly Cloudy 57 14 46 8 67 67 E 10 17 30.36 1028 10 16.09344 0 0
10:56 am 10:56 Partly Cloudy 58 14.4 47 8.3 67 67 ENE 9 15 30.39 1029 10 16.09344 0 0
11:56 am 11:56 Mostly Cloudy 60 15.6 45 7.2 58 58 ENE 8 13 30.42 1030 10 16.09344 0 0
12:56 pm 12:56 Mostly Sunny 64 17.8 44 6.7 48 48 ENE 12 19 30.39 1029 10 16.09344 0 0
1:56 pm 13:56 Partly Cloudy 64 17.8 44 6.7 48 48 NNE 10 17 30.39 1029 10 16.09344 0 0
2:56 pm 14:56 Mostly Sunny 66 18.9 44 6.7 45 45 ENE 8 13 30.36 1028 10 16.09344 0 0
3:56 pm 15:56 Sunny 66 18.9 43 6.1 43 43 N 7 11 30.33 1027 10 16.09344 0 0
4:56 pm 16:56 Sunny 67 19.4 42 5.6 41 41 NE 14 22 30.33 1027 10 16.09344 0 0
5:56 pm 17:56 Sunny 66 18.9 41 5 40 40 ENE 10 17 30.33 1027 10 16.09344 0 0
6:56 pm 18:56 Sunny 61 16.1 41 5 48 48 NE 8 13 30.33 1027 10 16.09344 0 0
7:56 pm 19:56 Clear 55 12.8 40 4.4 57 57 NE 6 9 30.33 1027 10 16.09344 0 0
8:56 pm 20:56 Clear 53 11.7 42 5.6 66 66 NE 9 15 30.36 1028 10 16.09344 0 0
9:56 pm 21:56 Clear 53 11.7 41 5 64 64 NE 12 19 30.36 1028 10 16.09344 0 0
10:56 pm 22:56 Clear 50 10 41 5 71 71 ENE 9 15 30.36 1028 10 16.09344 0 0
11:56 pm 23:56 Clear 47 8.3 41 5 80 80 ENE 8 13 30.36 1028 10 16.09344 0 0

Powered by AerisWeather